STARLINK-35198

Last updated on Mon Oct 20 2025 00:02:05 GMT+0000 (Coordinated Universal Time)

1 65672U 25211W 25292.04658371 .00129905 00000+0 23442-2 0 9993 2 65672 97.6039 334.2112 0001497 89.1903 270.9519 15.49270023 5718
UTC large
Height (km)
Speed (km/s)
/
Latitude / Longitude
Inclination (degrees)
Orbital Period (minutes)
Azimuth
Elevation
Range (km)
Doppler Factor

Next 0 passes for location: London (51.5072 / 0.1276)

Sorry there are no passes over London.
STARLINK-35198